Home > Weather > Kitchener > Past weeks

Flag for Canada Weather for the Past 2 Weeks in Kitchener, Ontario, Canada

Now
30 °F

Light snow. Low clouds.


Feels Like: 22 °F
Forecast: 29 / 33 °F
Wind: 9 mph from East

Location: Waterloo Well

Current Time: Feb 9, 2016 at 5:29:32 AM

Latest Report: Feb 9, 2016 at 4:00 AM


Visibility: 7 mi

Pressure: 29.49 "Hg

Humidity: 93%

Dew point: 28 °F

Location of KitchenerLocation

Historic Weather in Kitchener — Graph

°F

Kitchener Temperature Yesterday

Maximum temperature yesterday: 41 °F (at 12:00 PM)
Minimum temperature yesterday: 32 °F (at 7:00 PM)
Average temperature yesterday: 36 °F

High & Low Weather Summary for the Past Weeks

 TemperatureHumidityPressure
High57 °F (Feb 3, 1:52 PM)100% (Jan 31, 2:00 AM)30.34 "Hg (Jan 31, 2:00 AM)
Low14 °F (Jan 29, 9:04 AM)44% (Feb 3, 3:00 PM)29.46 "Hg (Jan 31, 11:00 PM)
Average32 °F82%29.88 "Hg
* Reported Jan 25 4:00 AM — Feb 9 4:00 AM, Kitchener, Weather by CustomWeather, © 2016

Note: Actual official high and low records may vary slightly from our data, if they occured in-between our weather recording intervals... More about our weather records

Advertising

Kitchener Weather History for the Previous 24 Hours

 ConditionsComfort  
Time TempWeatherWind HumidityBarometerVisibility
4:00 AM
Tue, Feb 9
30 °FLight snow. Low clouds.9 mph93%29.49 "Hg7 mi
3:00 AM32 °FLight snow. Low clouds.7 mph100%29.49 "Hg2 mi
2:00 AM32 °FLight snow. Low clouds.8 mph100%29.49 "Hg1 mi
1:00 AM32 °FLight snow. Low clouds.12 mph93%29.51 "Hg1 mi
12:00 AM32 °FLight snow. Low clouds.13 mph93%29.52 "Hg3 mi
11:55 PM
Mon, Feb 8
32 °FLight snow. Low clouds.15 mph93%29.52 "Hg5 mi
11:00 PM32 °FLight snow. Low clouds.16 mph93%29.52 "Hg4 mi
10:00 PM32 °FLight snow. Low clouds.17 mph93%29.55 "Hg3 mi
9:00 PM32 °FLight snow. Low clouds.17 mph93%29.56 "Hg2 mi
8:55 PM32 °FLight snow. Low clouds.16 mph93%29.56 "Hg2 mi
8:01 PM32 °FLight rain. Ice fog.16 mph93%29.57 "Hg5 mi
7:00 PM32 °FLight mixture of precip. Ice fog.14 mph100%29.59 "Hg5 mi
6:03 PM34 °FLight rain. Low clouds.14 mph93%29.59 "Hg5 mi
5:00 PM36 °FLight rain. Fog.12 mph93%29.59 "Hg6 mi
4:00 PM36 °FLight rain. Fog.17 mph93%29.59 "Hg6 mi
3:04 PM39 °FLight rain. Cloudy.12 mph81%29.58 "Hg9 mi
2:59 PM39 °FLight rain. Mostly cloudy.13 mph81%29.58 "Hg9 mi
2:00 PM41 °FPartly sunny.14 mph66%29.58 "Hg9 mi
1:00 PM41 °FPartly sunny.17 mph66%29.59 "Hg9 mi
12:00 PM41 °FScattered clouds.13 mph76%29.62 "Hg9 mi
11:00 AM39 °FOvercast.12 mph81%29.65 "Hg9 mi
10:48 AM39 °FCloudy.16 mph81%29.66 "Hg9 mi
10:00 AM37 °FMostly cloudy.15 mph87%29.66 "Hg9 mi
9:00 AM36 °FFog.10 mph93%29.68 "Hg6 mi
8:00 AM34 °FFog.8 mph93%29.67 "Hg6 mi
7:00 AM36 °FMostly cloudy.9 mph87%29.67 "Hg9 mi
6:00 AM37 °FMostly cloudy.7 mph81%29.68 "Hg9 mi
5:00 AM37 °FOvercast.7 mph81%29.68 "Hg9 mi
Weather by CustomWeather, © 2016

See weather overviewHow to use our weather pages